Wind_Speed
81 82 83 84 84 85 85 85 86 86 86 86 86 86 86 86 85 85 84 84 84 83 83 83 83 83 83 83 84 85 86 87 88 89 90 92 93 94 96 96 98 99 100 100 101 102 102 102 102 102 102 101
83 83 83 83 84 84 85 85 85 85 85 85 85 85 84 85 85 84 84 83 83 83 83 83 83 83 83 83 83 84 84 85 86 87 88 90 91 93 94 96 97 99 101 102 104 105 105 105 105 105 105 105
82 82 82 82 82 82 82 83 83 83 84 83 83 83 83 83 83 83 83 83 83 83 83 83 83 83 83 83 83 83 84 84 85 86 87 88 89 91 93 95 96 98 100 102 105 106 107 108 108 108 108 108
80 80 81 82 82 81 81 81 81 82 82 83 82 82 82 82 82 82 82 82 83 83 83 83 83 83 83 83 83 84 84 84 85 86 86 87 88 90 91 93 95 97 99 101 104 107 108 109 110 111 111 111
79 79 80 81 81 81 81 81 81 81 81 81 82 81 81 81 81 81 81 82 82 82 82 82 82 82 82 82 83 83 84 84 85 85 86 86 88 89 90 92 94 95 98 100 102 105 108 109 111 112 114 114
79 79 79 79 80 80 80 80 80 80 79 79 79 80 79 79 79 79 79 79 80 80 80 80 80 80 80 80 81 81 82 83 83 84 85 86 87 88 89 91 93 94 96 98 101 103 106 109 111 112 114 116
79 79 78 78 78 78 78 78 78 78 77 77 77 77 77 76 76 76 76 76 76 76 76 76 76 76 76 76 77 78 78 79 81 82 84 85 86 87 88 89 91 93 95 97 99 101 104 107 110 112 114 116
77 77 77 76 76 76 76 75 75 75 74 74 74 73 73 72 72 72 72 71 71 71 70 70 70 70 71 72 72 73 74 75 77 79 81 83 84 86 87 88 90 92 93 95 97 100 102 105 108 111 114 116
75 75 75 74 74 73 73 72 71 71 70 69 68 68 67 66 65 64 64 64 63 63 63 62 62 63 64 65 67 68 69 71 73 74 76 79 81 83 86 87 89 90 92 94 96 98 100 103 105 108 112 115
71 71 71 70 69 68 67 66 65 64 62 61 59 58 57 56 55 55 54 54 54 54 55 55 56 57 59 60 62 64 66 67 69 71 73 75 78 80 82 85 87 89 90 92 94 96 98 100 103 106 109 112
64 63 63 62 60 58 57 56 54 53 51 50 49 48 48 47 47 48 48 49 50 51 52 53 54 55 57 59 61 63 65 67 68 70 72 74 76 78 80 82 84 86 88 90 92 94 96 98 100 103 105 109
52 51 50 49 48 47 46 45 44 43 43 43 44 44 45 45 46 47 48 49 51 52 53 55 56 57 59 61 63 65 67 69 70 72 73 75 77 78 80 81 83 84 86 88 90 92 94 96 98 99 102 105
41 40 40 40 40 40 41 42 41 42 43 44 45 45 47 48 48 50 51 52 53 54 55 57 58 59 61 63 64 66 68 70 72 74 75 77 79 80 81 83 84 84 86 88 89 91 92 94 95 97 98 101
39 39 39 39 40 41 42 43 43 44 45 46 47 48 49 50 50 51 53 53 55 56 57 58 59 60 62 64 66 67 69 72 74 75 77 79 80 82 83 85 86 87 88 89 90 91 92 93 93 94 96 97
42 42 42 42 42 42 43 44 45 45 46 47 48 49 50 51 52 53 54 55 56 57 58 59 60 62 64 66 68 69 71 73 75 77 79 80 81 82 84 85 87 88 89 91 92 93 94 94 94 93 93 94
44 43 43 43 43 43 44 45 46 47 48 49 50 51 52 53 54 55 56 57 58 59 60 62 64 65 67 69 71 72 74 76 77 79 80 82 83 83 85 86 88 89 90 92 93 94 95 96 95 94 92 91
43 43 44 44 45 45 46 47 48 49 50 51 52 53 54 55 56 58 59 60 61 63 64 65 67 69 70 72 73 75 76 78 79 80 82 83 84 85 86 87 88 90 91 92 93 95 96 97 97 96 94 91
44 44 45 46 46 47 48 49 51 51 52 53 55 56 57 58 60 61 62 64 65 66 67 68 70 72 73 74 75 77 78 79 80 81 82 84 85 86 87 88 89 90 92 93 94 95 96 97 97 97 95 93
45 46 46 48 49 50 51 52 54 54 55 57 58 59 60 61 62 64 65 66 68 69 70 70 72 73 74 75 76 78 79 80 81 82 83 84 86 87 88 89 90 91 92 93 95 96 96 97 97 97 95 94
47 48 49 50 52 53 55 56 57 58 59 60 61 62 63 64 65 66 67 68 70 72 73 73 74 75 76 77 78 79 81 81 82 83 84 85 87 88 89 90 91 92 93 94 95 96 97 97 97 96 95 94
50 51 52 52 53 55 58 59 60 61 62 64 65 66 66 67 67 68 69 70 72 75 76 76 77 79 80 80 81 82 83 84 84 85 85 87 88 89 90 91 93 94 94 95 96 96 97 97 97 95 94 93
53 54 56 56 57 58 60 62 63 64 66 67 68 69 69 70 71 71 72 74 76 79 80 81 82 83 84 84 85 85 86 87 87 88 88 89 90 91 91 92 94 95 95 96 96 97 97 97 96 95 94 93
57 58 59 60 61 62 63 64 66 67 69 70 71 71 72 73 74 75 76 78 80 82 85 86 86 87 89 89 89 90 91 91 91 91 91 92 92 93 93 94 95 96 96 97 97 97 97 97 96 94 93 92
60 62 63 64 65 66 67 68 68 70 72 73 74 75 76 77 79 80 82 83 84 87 89 91 92 92 94 95 95 95 96 96 95 95 95 95 95 95 96 96 96 97 97 97 97 97 97 97 96 94 92 90
65 66 67 68 70 70 71 71 72 73 74 76 77 78 80 82 84 86 88 89 90 92 94 96 97 98 99 100 100 100 100 100 99 99 98 98 98 98 98 98 98 98 98 97 97 97 97 96 95 93 91 89
69 70 71 72 73 75 75 76 76 76 77 79 80 82 85 87 89 91 93 95 96 97 99 100 101 102 103 103 103 103 103 103 103 102 101 101 101 100 100 100 99 98 98 97 97 96 96 95 94 92 90 89
74 74 75 76 76 78 79 79 80 80 81 82 83 85 88 91 93 95 97 99 101 102 103 104 105 105 106 106 106 105 105 105 105 105 104 103 103 102 101 101 100 99 98 97 97 96 95 94 93 91 89 89
78 79 80 80 80 81 81 82 83 83 84 85 85 87 90 93 96 99 101 104 106 107 107 108 108 108 108 108 108 108 107 107 107 106 106 105 105 104 103 102 100 99 98 98 96 95 95 94 93 91 88 88
81 82 83 83 83 83 83 84 85 86 88 89 90 91 93 96 99 102 105 107 110 111 111 111 111 111 110 110 110 109 108 108 108 108 107 107 106 104 103 102 100 99 98 97 96 95 94 93 92 91 89 87
84 85 85 85 85 85 86 86 88 90 91 93 95 96 98 100 103 106 108 110 113 114 114 114 113 112 111 111 110 109 109 109 109 109 108 107 106 105 103 101 100 99 98 96 96 95 93 92 92 91 89 87
88 89 88 88 88 88 89 90 91 93 95 97 99 100 102 104 107 110 112 114 115 115 115 114 113 111 110 109 109 108 108 107 108 108 108 106 105 104 103 101 99 99 97 95 95 94 93 92 91 90 89 87
Wind_Direction
277 277 277 277 277 277 276 276 276 275 275 275 275 275 274 274 273 272 271 270 269 268 267 266 265 263 261 260 258 256 255 253 251 250 249 249 248 248 248 247 246 245 243 241 239 238 237 236 237 236 236 236
279 278 277 277 277 277 277 277 277 276 276 275 275 275 274 274 273 273 272 271 270 269 268 267 266 265 263 262 260 258 257 255 253 251 250 248 247 247 246 246 246 245 243 242 240 239 237 236 236 236 236 236
281 280 280 279 278 278 278 277 277 277 277 276 276 275 275 274 274 273 272 271 270 269 269 268 267 266 264 263 262 261 259 258 256 254 252 250 248 246 245 245 244 244 243 242 241 239 238 237 235 235 235 235
281 281 281 281 280 279 279 279 278 278 278 277 277 276 275 275 274 273 272 272 271 270 269 268 267 266 265 265 264 263 261 260 258 257 254 253 251 248 246 244 243 243 242 242 241 240 239 237 236 235 235 235
281 281 280 280 280 280 280 280 279 278 278 278 277 276 276 275 274 273 272 272 271 270 270 269 268 267 266 265 264 263 262 261 260 259 257 255 254 252 249 247 244 243 242 241 241 240 239 238 237 236 235 234
281 281 280 280 280 280 280 280 279 279 278 277 277 277 276 275 275 274 273 273 272 271 271 270 269 268 267 266 265 264 262 261 260 259 258 257 255 254 252 250 248 245 243 241 240 239 239 239 238 237 236 235
282 281 281 280 280 280 279 279 279 278 278 277 277 277 276 276 275 275 274 274 273 273 272 271 271 270 269 267 265 264 263 261 260 259 258 257 256 255 254 252 251 249 246 243 241 239 238 238 238 237 237 236
282 282 281 281 280 280 279 279 279 278 278 278 278 277 277 276 276 276 275 274 274 273 272 272 271 270 269 267 265 264 262 261 260 259 258 257 257 256 255 253 252 251 249 247 244 241 238 237 237 237 237 236
283 283 282 281 280 280 280 280 279 279 279 278 278 277 277 276 276 275 274 273 273 272 271 270 269 269 268 267 266 265 263 262 260 259 258 258 257 256 256 255 253 253 252 250 248 245 241 239 237 236 237 236
284 283 282 281 281 281 280 280 279 279 278 278 277 277 276 275 274 273 272 272 271 271 270 269 269 269 269 269 268 268 267 265 263 262 261 259 258 257 257 256 255 254 253 252 251 248 245 242 239 237 236 236
284 282 282 282 282 281 281 280 279 279 278 277 276 276 275 274 274 273 272 272 272 272 271 271 271 271 271 271 271 271 270 269 268 267 265 264 262 261 259 258 258 257 255 254 253 251 249 246 243 240 237 236
286 285 284 284 284 283 282 281 280 279 278 277 277 276 276 275 275 275 274 274 274 273 274 273 273 273 273 272 272 272 272 271 271 270 269 268 266 265 264 262 261 260 259 257 256 254 252 250 246 243 240 238
290 289 288 287 286 285 283 282 281 280 279 279 278 278 278 277 277 277 276 276 275 275 275 274 274 274 274 273 272 272 272 271 271 270 270 269 268 267 267 266 265 263 262 261 260 257 255 253 250 246 243 240
291 290 288 287 285 284 283 282 281 281 281 280 280 280 280 279 279 278 278 277 277 277 276 276 276 275 275 275 274 274 273 272 272 271 270 269 269 268 267 267 266 265 264 263 262 261 259 256 253 250 245 242
289 288 287 286 285 284 284 284 284 283 283 283 283 282 282 281 281 280 280 280 279 279 279 279 279 278 278 277 277 276 275 274 273 272 272 271 269 269 268 267 266 266 265 264 263 262 261 259 257 253 249 244
290 290 289 289 289 288 288 288 287 287 286 286 285 284 283 283 283 282 282 282 281 281 281 281 280 280 279 278 277 276 275 275 274 273 273 272 271 270 269 268 267 266 265 264 263 263 262 261 259 256 253 248
292 293 293 292 292 291 291 290 289 289 288 287 287 286 285 285 285 284 284 283 283 282 282 281 280 280 279 278 277 276 275 274 274 273 272 272 271 270 269 268 267 266 265 264 263 262 262 261 260 258 256 252
294 294 294 294 293 292 292 291 290 290 290 289 288 287 286 285 285 284 284 283 282 282 281 281 280 280 279 279 278 277 276 275 274 273 272 272 271 270 269 268 267 266 265 264 264 263 262 261 260 259 257 255
296 295 295 295 295 294 293 292 292 291 290 289 287 286 285 284 283 283 283 283 282 282 282 282 281 281 281 281 280 279 278 277 276 274 273 272 271 270 269 268 267 266 265 264 264 263 262 261 260 259 257 255
296 295 295 295 295 294 293 292 291 290 288 287 286 285 284 284 283 284 284 284 284 285 284 284 284 284 283 283 282 281 280 278 277 275 274 273 271 270 269 268 267 266 265 264 264 263 262 261 260 259 258 256
296 295 294 293 292 291 291 290 289 288 287 287 287 286 286 286 286 286 287 287 287 287 287 287 287 287 286 285 284 283 281 280 278 277 275 273 272 270 269 268 267 266 266 265 264 263 263 262 261 260 258 256
296 295 294 293 291 290 289 289 289 289 289 289 289 289 289 289 290 290 290 290 290 290 290 290 289 289 288 287 286 284 283 281 280 278 276 275 273 271 270 268 268 267 266 265 264 264 263 263 262 260 259 257
295 294 293 292 292 291 290 290 290 290 290 290 291 291 291 292 292 292 291 291 291 292 292 292 292 291 290 289 288 287 285 283 281 279 277 276 274 272 270 269 268 267 266 266 265 264 264 263 262 261 259 258
295 294 294 293 293 292 292 291 292 292 292 292 293 293 293 293 293 293 293 293 294 294 294 294 294 293 292 291 290 288 286 284 282 280 278 276 274 272 271 269 268 267 266 266 265 265 264 263 262 261 260 258
296 295 295 294 294 294 293 294 294 294 294 294 294 295 295 296 296 296 296 296 296 296 296 295 295 294 293 291 290 288 286 284 282 280 278 276 274 273 271 270 268 267 267 266 266 265 264 264 263 262 261 259
297 296 295 295 296 296 296 296 295 295 295 295 296 297 297 297 297 297 297 297 297 296 296 295 294 293 292 290 289 287 285 284 282 280 278 276 274 273 271 270 269 268 268 267 266 266 265 264 263 262 261 260
297 297 297 297 297 296 296 295 295 295 296 296 297 297 297 297 298 297 297 297 297 296 295 294 293 292 290 289 287 285 284 282 280 279 277 275 274 273 272 271 270 269 268 268 267 266 266 265 264 263 261 260
299 299 299 298 297 296 295 295 295 295 296 296 296 296 296 297 297 297 297 297 297 296 295 294 292 291 289 288 286 284 282 280 279 278 276 275 274 273 272 271 271 270 269 269 268 267 266 265 265 264 262 260
299 298 298 297 296 295 295 295 296 296 296 297 297 297 297 297 297 298 298 298 297 296 295 294 292 290 288 286 285 283 281 280 278 277 276 275 274 274 273 272 271 271 270 269 268 268 267 266 265 264 263 261
299 298 297 296 296 296 296 296 296 297 297 297 298 298 298 298 299 299 298 298 297 296 294 293 291 289 287 285 283 282 281 280 279 277 276 276 275 274 273 273 272 271 270 269 269 268 267 266 265 264 263 262
300 299 298 298 297 297 297 297 297 297 298 298 298 299 299 299 300 299 299 298 297 295 293 291 289 287 285 284 282 281 280 279 279 278 277 276 275 275 274 273 272 272 271 270 269 268 267 266 265 264 263 262
Height
10645 10644 10641 10638 10636 10634 10633 10632 10631 10629 10629 10628 10627 10627 10627 10627 10627 10627 10628 10629 10629 10629 10630 10631 10632 10634 10636 10637 10638 10640 10642 10645 10648 10651 10652 10654 10657 10660 10663 10666 10669 10673 10678 10681 10684 10687 10691 10694 10696 10699 10702 10704
10633 10633 10632 10629 10628 10625 10623 10622 10621 10619 10618 10618 10617 10617 10617 10616 10615 10616 10616 10617 10617 10617 10618 10619 10620 10621 10623 10624 10626 10628 10630 10632 10634 10637 10639 10642 10645 10648 10650 10653 10656 10659 10663 10667 10670 10673 10677 10681 10684 10687 10691 10693
10623 10621 10620 10618 10618 10616 10614 10613 10611 10609 10607 10607 10606 10606 10606 10605 10604 10604 10605 10605 10605 10605 10607 10608 10608 10609 10611 10612 10613 10615 10617 10619 10621 10623 10626 10628 10631 10634 10637 10640 10643 10645 10648 10652 10655 10659 10663 10668 10672 10675 10679 10682
10616 10613 10610 10608 10606 10605 10604 10603 10602 10599 10597 10596 10595 10595 10595 10594 10593 10593 10593 10593 10593 10594 10595 10596 10597 10598 10599 10601 10602 10603 10605 10607 10608 10610 10613 10615 10617 10620 10623 10625 10629 10632 10635 10638 10641 10645 10649 10654 10658 10662 10665 10668
10607 10605 10602 10599 10597 10595 10594 10592 10592 10590 10588 10586 10585 10584 10584 10584 10583 10583 10583 10582 10582 10583 10584 10584 10585 10586 10588 10590 10591 10592 10593 10595 10596 10598 10601 10603 10604 10606 10609 10611 10614 10618 10621 10625 10628 10631 10635 10639 10643 10647 10651 10654
10597 10595 10594 10591 10589 10587 10585 10583 10581 10580 10579 10577 10576 10575 10574 10574 10573 10573 10573 10572 10573 10573 10573 10574 10574 10575 10577 10579 10580 10580 10582 10583 10584 10586 10588 10590 10591 10593 10595 10597 10600 10603 10607 10610 10614 10618 10621 10624 10628 10632 10636 10640
10587 10585 10584 10582 10580 10578 10576 10574 10572 10570 10569 10568 10567 10566 10565 10564 10564 10564 10563 10563 10563 10563 10564 10564 10564 10564 10566 10567 10568 10569 10570 10571 10572 10573 10575 10577 10578 10580 10583 10584 10586 10588 10592 10595 10599 10603 10606 10609 10612 10616 10621 10624
10578 10576 10574 10573 10570 10569 10567 10565 10563 10562 10560 10559 10558 10557 10556 10556 10556 10555 10555 10554 10554 10554 10554 10555 10555 10554 10554 10555 10556 10557 10558 10559 10560 10561 10562 10564 10566 10567 10570 10572 10574 10575 10577 10580 10584 10587 10591 10594 10598 10601 10605 10609
10570 10567 10565 10563 10561 10559 10558 10556 10555 10553 10552 10551 10550 10549 10548 10548 10548 10548 10547 10546 10546 10546 10546 10546 10546 10545 10545 10544 10545 10546 10547 10548 10549 10550 10551 10552 10554 10555 10556 10559 10561 10563 10564 10566 10569 10572 10576 10579 10583 10587 10591 10594
10561 10558 10555 10553 10553 10551 10549 10548 10547 10545 10544 10543 10542 10541 10541 10541 10540 10540 10540 10539 10539 10538 10538 10538 10538 10537 10537 10536 10535 10536 10536 10537 10538 10539 10540 10541 10542 10543 10544 10546 10547 10550 10552 10553 10554 10557 10561 10564 10569 10573 10577 10580
10552 10549 10546 10545 10544 10544 10542 10540 10540 10538 10537 10536 10536 10535 10534 10534 10534 10533 10533 10533 10532 10531 10531 10531 10531 10530 10529 10529 10528 10527 10527 10527 10527 10528 10529 10530 10530 10532 10533 10534 10535 10536 10538 10540 10541 10543 10546 10549 10553 10558 10563 10566
10544 10543 10540 10538 10538 10537 10536 10534 10534 10533 10531 10531 10530 10529 10528 10528 10527 10527 10526 10526 10525 10525 10524 10523 10524 10523 10522 10521 10520 10519 10519 10518 10518 10518 10518 10518 10519 10520 10520 10522 10523 10524 10525 10526 10528 10529 10531 10534 10537 10542 10547 10551
10538 10537 10536 10534 10533 10532 10530 10529 10529 10528 10526 10525 10524 10524 10522 10522 10521 10520 10519 10519 10518 10517 10517 10516 10516 10515 10514 10513 10513 10512 10510 10509 10509 10508 10508 10508 10508 10508 10509 10509 10510 10511 10512 10512 10513 10515 10516 10519 10521 10526 10531 10536
10534 10533 10531 10530 10529 10527 10526 10525 10524 10523 10521 10520 10519 10518 10517 10515 10514 10514 10513 10512 10511 10510 10510 10509 10508 10507 10506 10505 10504 10503 10502 10500 10499 10499 10498 10497 10497 10497 10497 10497 10497 10498 10499 10498 10499 10500 10501 10503 10506 10510 10514 10520
10530 10528 10527 10525 10524 10522 10521 10519 10518 10517 10516 10514 10513 10511 10510 10509 10508 10507 10506 10505 10504 10503 10502 10501 10500 10498 10498 10496 10495 10494 10492 10491 10490 10488 10487 10486 10487 10487 10486 10485 10485 10485 10486 10485 10485 10486 10487 10488 10490 10494 10498 10503
10524 10523 10521 10520 10518 10516 10515 10513 10512 10511 10509 10508 10506 10505 10503 10502 10501 10499 10498 10497 10496 10495 10493 10492 10491 10489 10488 10487 10485 10484 10482 10481 10479 10478 10476 10475 10475 10475 10474 10473 10472 10472 10472 10472 10471 10472 10472 10472 10474 10477 10481 10487
10519 10517 10515 10514 10512 10510 10509 10507 10505 10504 10503 10501 10499 10498 10496 10494 10493 10492 10490 10489 10487 10486 10485 10483 10481 10479 10478 10477 10475 10473 10471 10470 10468 10467 10465 10463 10462 10462 10461 10461 10459 10458 10458 10457 10457 10457 10457 10458 10459 10462 10466 10470
10514 10512 10510 10508 10506 10505 10503 10500 10499 10497 10496 10494 10492 10490 10489 10487 10485 10483 10482 10480 10478 10476 10475 10474 10472 10469 10468 10466 10464 10462 10460 10458 10456 10455 10453 10450 10449 10448 10447 10447 10445 10444 10444 10443 10442 10442 10442 10443 10444 10447 10450 10454
10508 10506 10504 10501 10499 10497 10496 10493 10491 10490 10488 10485 10484 10482 10480 10478 10476 10474 10472 10470 10468 10466 10465 10464 10462 10459 10457 10455 10453 10450 10447 10446 10443 10442 10440 10437 10435 10434 10433 10432 10430 10429 10429 10428 10427 10427 10427 10428 10429 10431 10435 10438
10502 10500 10498 10496 10493 10490 10488 10486 10484 10482 10480 10477 10475 10473 10471 10469 10468 10466 10463 10461 10458 10455 10454 10453 10451 10447 10445 10443 10440 10437 10434 10431 10429 10427 10425 10422 10420 10419 10418 10416 10414 10413 10413 10413 10412 10411 10411 10412 10414 10416 10420 10422
10495 10492 10491 10489 10488 10484 10481 10478 10476 10473 10471 10468 10466 10464 10461 10460 10458 10456 10454 10451 10448 10444 10442 10440 10438 10435 10432 10429 10426 10423 10419 10417 10414 10412 10410 10407 10404 10404 10402 10400 10398 10397 10397 10397 10396 10396 10396 10396 10398 10401 10404 10405
10487 10485 10482 10481 10479 10477 10474 10471 10468 10465 10462 10459 10457 10454 10452 10450 10448 10445 10443 10440 10436 10432 10429 10426 10424 10421 10417 10414 10411 10408 10404 10401 10399 10396 10394 10391 10389 10387 10387 10385 10382 10381 10381 10380 10380 10380 10380 10381 10382 10385 10388 10389
10479 10477 10475 10472 10470 10468 10466 10463 10459 10456 10453 10450 10447 10444 10442 10439 10436 10433 10430 10427 10424 10420 10415 10412 10409 10406 10402 10398 10396 10393 10388 10385 10383 10381 10378 10375 10373 10371 10370 10369 10367 10366 10365 10364 10364 10365 10365 10365 10367 10370 10372 10374
10472 10469 10467 10464 10462 10459 10456 10454 10451 10447 10443 10439 10436 10433 10430 10427 10423 10419 10416 10413 10410 10407 10401 10397 10394 10391 10387 10383 10380 10377 10372 10369 10366 10364 10361 10358 10357 10355 10353 10352 10351 10350 10349 10349 10349 10349 10349 10349 10351 10353 10355 10358
10463 10460 10458 10455 10451 10448 10446 10443 10441 10437 10433 10429 10425 10421 10417 10414 10409 10404 10401 10398 10395 10392 10387 10382 10379 10376 10372 10368 10364 10361 10356 10352 10348 10346 10344 10342 10340 10338 10337 10335 10334 10334 10334 10334 10333 10334 10334 10334 10335 10337 10339 10342
10454 10451 10448 10445 10441 10437 10434 10431 10428 10425 10421 10418 10413 10408 10403 10399 10395 10391 10386 10382 10379 10377 10373 10368 10363 10360 10355 10351 10347 10344 10340 10335 10331 10328 10326 10324 10322 10321 10320 10318 10317 10318 10318 10317 10317 10318 10318 10318 10319 10321 10325 10325
10443 10440 10437 10435 10431 10427 10423 10418 10415 10413 10409 10407 10403 10398 10392 10386 10381 10377 10373 10367 10363 10360 10357 10352 10347 10343 10338 10334 10329 10325 10323 10318 10313 10311 10308 10307 10305 10304 10303 10302 10301 10301 10301 10301 10301 10303 10302 10302 10303 10305 10309 10308
10432 10429 10425 10422 10419 10415 10411 10407 10403 10400 10397 10395 10393 10390 10383 10377 10370 10364 10358 10352 10347 10342 10338 10334 10329 10324 10319 10315 10310 10306 10304 10300 10296 10293 10291 10289 10288 10287 10286 10285 10285 10285 10285 10284 10285 10286 10286 10287 10287 10288 10291 10292
10422 10419 10415 10411 10407 10403 10400 10395 10390 10387 10384 10380 10378 10376 10372 10366 10359 10352 10345 10337 10330 10324 10319 10314 10309 10305 10300 10296 10292 10288 10285 10282 10278 10275 10274 10271 10270 10270 10269 10269 10269 10268 10268 10268 10268 10269 10270 10271 10272 10272 10274 10275
10412 10408 10403 10399 10395 10391 10388 10384 10379 10374 10371 10366 10362 10360 10356 10350 10344 10337 10330 10322 10314 10307 10300 10295 10290 10285 10280 10276 10273 10269 10267 10264 10260 10257 10256 10254 10253 10252 10251 10252 10252 10251 10251 10252 10251 10251 10253 10255 10256 10257 10258 10259
10398 10394 10389 10386 10382 10378 10375 10372 10367 10361 10357 10354 10349 10345 10341 10335 10328 10319 10312 10304 10296 10288 10281 10274 10269 10265 10261 10257 10254 10251 10249 10246 10242 10238 10237 10236 10235 10234 10233 10234 10235 10233 10234 10236 10236 10235 10236 10238 10239 10241 10241 10243